Location: Sternwarte Stuttgart
(48.7670°N, 9.1830°E)
Time: 15:48:56
(UTC+02:00)

ISS - All Passes

Search period start: 23 June 2017 00:00
Search period end: 03 July 2017 00:00
Orbit: 401 x 408 km, 51.6° (Epoch: 23 June)

Date Brightness Start Highest point End Pass type
(mag) Time Alt. Az. Time Alt. Az. Time Alt. Az.
23 Jun - 10:18:57 10° S 10:21:24 19° SE 10:23:51 10° E daylight
23 Jun - 11:54:15 10° WSW 11:57:32 87° SSE 12:00:51 10° ENE daylight
23 Jun - 13:30:59 10° WNW 13:34:13 49° N 13:37:27 10° ENE daylight
23 Jun - 15:07:37 10° WNW 15:10:56 77° NNE 15:14:14 10° ESE daylight
23 Jun - 16:44:22 10° W 16:47:12 27° SW 16:50:02 10° SSE daylight
24 Jun - 09:28:10 10° SSE 09:29:27 12° SE 09:30:44 10° ESE daylight
24 Jun - 11:02:08 10° SW 11:05:23 58° SSE 11:08:37 10° ENE daylight
24 Jun - 12:38:41 10° W 12:41:56 53° N 12:45:11 10° ENE daylight
24 Jun - 14:15:26 10° WNW 14:18:42 60° NNE 14:21:59 10° E daylight
24 Jun - 15:52:00 10° WNW 15:55:09 42° SSW 15:58:17 10° SE daylight
25 Jun - 10:10:12 10° SW 10:13:15 37° SSE 10:16:20 10° ENE daylight
25 Jun - 11:46:23 10° W 11:49:39 63° NNW 11:52:56 10° ENE daylight
25 Jun - 13:23:10 10° WNW 13:26:25 51° N 13:29:39 10° E daylight
25 Jun - 14:59:43 10° WNW 15:03:01 66° SSW 15:06:16 10° ESE daylight
25 Jun - 16:37:12 10° WSW 16:39:00 14° SW 16:40:47 10° S daylight
26 Jun - 09:18:32 10° SSW 09:21:12 23° SE 09:23:52 10° E daylight
26 Jun - 10:54:07 10° WSW 10:57:24 84° NNW 11:00:43 10° ENE daylight
26 Jun - 12:30:53 10° WNW 12:34:06 48° N 12:37:20 10° ENE daylight
26 Jun - 14:07:29 10° WNW 14:10:48 85° NNE 14:14:06 10° ESE daylight
26 Jun - 15:44:20 10° W 15:47:00 22° SW 15:49:38 10° SSE daylight
27 Jun - 08:27:20 10° S 08:29:11 14° SE 08:31:02 10° ESE daylight
27 Jun - 10:01:55 10° WSW 10:05:11 68° SSE 10:08:28 10° ENE daylight
27 Jun - 11:38:33 10° W 11:41:47 51° N 11:45:01 10° ENE daylight
27 Jun - 13:15:15 10° WNW 13:18:32 64° NNE 13:21:49 10° E daylight
27 Jun - 14:51:52 10° W 14:54:55 36° SSW 14:57:58 10° SE daylight
28 Jun - 09:09:53 10° SW 09:13:01 43° SSE 09:16:10 10° ENE daylight
28 Jun - 10:46:12 10° W 10:49:27 59° NNW 10:52:44 10° ENE daylight
28 Jun - 12:22:58 10° WNW 12:26:14 53° N 12:29:28 10° E daylight
28 Jun - 13:59:31 10° WNW 14:02:46 57° SSW 14:06:01 10° SE daylight
28 Jun - 15:37:30 10° WSW 15:38:40 11° SW 15:39:51 10° SSW daylight
29 Jun - 08:18:03 10° SSW 08:20:53 27° SE 08:23:44 10° E daylight
29 Jun - 09:53:53 10° WSW 09:57:10 75° NNW 10:00:27 10° ENE daylight
29 Jun - 11:30:40 10° WNW 11:33:53 49° N 11:37:06 10° E daylight
29 Jun - 13:07:14 10° WNW 13:10:33 85° SSW 13:13:50 10° ESE daylight
29 Jun - 14:44:15 10° W 14:46:40 19° SW 14:49:05 10° S daylight
30 Jun - 07:26:36 10° S 07:28:49 17° SE 07:31:02 10° E daylight
30 Jun - 09:01:37 10° WSW 09:04:53 79° SSE 09:08:11 10° ENE daylight
30 Jun - 10:38:18 10° W 10:41:31 49° N 10:44:45 10° ENE daylight
30 Jun - 12:14:58 10° WNW 12:18:15 71° NNE 12:21:33 10° ESE daylight
30 Jun - 13:51:38 10° W 13:54:35 30° SW 13:57:31 10° SSE daylight
01 Jul - 06:36:45 10° SE 06:36:48 10° SE 06:36:51 10° SE daylight
01 Jul - 08:09:28 10° SW 08:12:39 51° SSE 08:15:52 10° ENE daylight
01 Jul - 09:45:55 10° W 09:49:09 55° N 09:52:25 10° ENE daylight
01 Jul - 11:22:40 10° WNW 11:25:55 56° N 11:29:10 10° E daylight
01 Jul - 12:59:13 10° WNW 13:02:25 48° SSW 13:05:36 10° SE daylight
02 Jul - 07:17:30 10° SSW 07:20:28 32° SE 07:23:26 10° E daylight
02 Jul - 08:53:32 10° W 08:56:48 68° NNW 09:00:05 10° ENE daylight
02 Jul - 10:30:20 10° WNW 10:33:33 50° N 10:36:46 10° E daylight
02 Jul - 12:06:52 10° WNW 12:10:10 75° SSW 12:13:27 10° ESE daylight
02 Jul - 13:44:06 10° W 13:46:13 16° SW 13:48:20 10° S daylight
